Location: Central Coast NSW, Australia
(33.2407°S, 151.4316°E)
Time: 08:54:43
(UTC+10:00)

N. Korean satellite - Pass Details

Date: 24 March 2019
Orbit: 457 x 508 km, 97.2° (Epoch: 22 April)

Event Time Altitude Azimuth Distance (km) Brightness Sun altitude
Rises 05:43:29 0° 37° (NE) 2,596 10.6 -16.7°
Reaches altitude 10° 05:45:46 10° 50° (NE) 1,726 9.9 -16.3°
Maximum altitude 05:48:54 26° 107° (ESE) 1,035 9.1 -15.6°
Drops below altitude 10° 05:52:06 10° 165° (SSE) 1,755 9.7 -15.0°
Sets 05:54:27 0° 177° (S) 2,651 10.5 -14.5°
